Time,TemperatureF,DewpointF,PressureIn,WindDirection,WindDirectionDegrees,WindSpeedMPH,WindSpeedGustMPH,Humidity,HourlyPrecipIn,Conditions,Clouds,dailyrainin,SoftwareType,DateUTC
2013-01-02 00:12:00,11.8,8.9,29.91,WNW,292,2.2,-999.0,88,-99.99,,,0.00,Acu-Link.com,2013-01-02 05:12:00,
2013-01-02 00:28:00,11.8,8.9,29.91,WNW,292,2.7,-999.0,88,-99.99,,,0.00,Acu-Link.com,2013-01-02 05:28:00,
2013-01-02 00:43:00,11.3,8.5,29.90,WSW,247,3.2,-999.0,88,-99.99,,,0.00,Acu-Link.com,2013-01-02 05:43:00,
2013-01-02 00:58:00,11.1,8.0,29.91,WNW,292,4.2,-999.0,87,-99.99,,,0.00,Acu-Link.com,2013-01-02 05:58:00,
2013-01-02 01:14:00,10.8,7.7,29.91,WSW,247,2.2,-999.0,87,-99.99,,,0.00,Acu-Link.com,2013-01-02 06:14:00,
2013-01-02 01:29:00,10.9,7.8,29.90,WNW,292,1.7,-999.0,87,-99.99,,,0.00,Acu-Link.com,2013-01-02 06:29:00,
2013-01-02 01:44:00,10.8,7.5,29.90,WSW,247,3.7,-999.0,86,-99.99,,,0.00,Acu-Link.com,2013-01-02 06:44:00,
2013-01-02 01:59:00,10.6,7.0,29.90,WNW,292,3.7,-999.0,85,-99.99,,,0.00,Acu-Link.com,2013-01-02 06:59:00,
2013-01-02 02:15:00,10.6,7.0,29.91,WNW,292,4.7,-999.0,85,-99.99,,,0.00,Acu-Link.com,2013-01-02 07:15:00,
2013-01-02 02:30:00,10.2,6.3,29.91,WNW,292,4.7,-999.0,84,-99.99,,,0.00,Acu-Link.com,2013-01-02 07:30:00,
2013-01-02 02:45:00,10.4,6.5,29.92,NW,315,5.8,-999.0,84,-99.99,,,0.00,Acu-Link.com,2013-01-02 07:45:00,
2013-01-02 03:01:00,10.2,6.1,29.93,WNW,292,5.3,-999.0,83,-99.99,,,0.00,Acu-Link.com,2013-01-02 08:01:00,
2013-01-02 03:16:00,9.7,5.3,29.93,WNW,292,5.3,-999.0,82,-99.99,,,0.00,Acu-Link.com,2013-01-02 08:16:00,
2013-01-02 03:31:00,9.7,5.3,29.93,NW,315,6.3,-999.0,82,-99.99,,,0.00,Acu-Link.com,2013-01-02 08:31:00,
2013-01-02 03:46:00,9.0,4.6,29.92,WNW,292,4.7,-999.0,82,-99.99,,,0.00,Acu-Link.com,2013-01-02 08:46:00,
2013-01-02 04:06:00,8.6,4.3,29.93,NW,315,4.2,-999.0,82,-99.99,,,0.00,Acu-Link.com,2013-01-02 09:06:00,
2013-01-02 04:22:00,8.1,4.0,29.93,West,270,3.7,-999.0,83,-99.99,,,0.00,Acu-Link.com,2013-01-02 09:22:00,
2013-01-02 04:37:00,7.5,3.4,29.94,WNW,292,4.7,-999.0,83,-99.99,,,0.00,Acu-Link.com,2013-01-02 09:37:00,
2013-01-02 04:52:00,7.5,3.4,29.94,NW,315,5.3,-999.0,83,-99.99,,,0.00,Acu-Link.com,2013-01-02 09:52:00,
2013-01-02 05:08:00,7.3,3.2,29.94,WNW,292,5.8,-999.0,83,-99.99,,,0.00,Acu-Link.com,2013-01-02 10:08:00,
2013-01-02 05:23:00,7.2,3.1,29.93,WNW,292,2.7,-999.0,83,-99.99,,,0.00,Acu-Link.com,2013-01-02 10:23:00,
2013-01-02 05:38:00,7.2,3.1,29.93,West,270,4.7,-999.0,83,-99.99,,,0.00,Acu-Link.com,2013-01-02 10:38:00,
2013-01-02 05:53:00,6.8,2.8,29.92,WNW,292,2.7,-999.0,83,-99.99,,,0.00,Acu-Link.com,2013-01-02 10:53:00,
2013-01-02 06:08:00,6.8,3.0,29.92,WNW,292,3.7,-999.0,84,-99.99,,,0.00,Acu-Link.com,2013-01-02 11:08:00,
2013-01-02 06:24:00,6.6,2.8,29.92,NW,315,3.7,-999.0,84,-99.99,,,0.00,Acu-Link.com,2013-01-02 11:24:00,
2013-01-02 06:39:00,6.3,2.5,29.91,West,270,1.7,-999.0,84,-99.99,,,0.00,Acu-Link.com,2013-01-02 11:39:00,
2013-01-02 06:54:00,5.7,1.9,29.92,SW,225,2.2,-999.0,84,-99.99,,,0.00,Acu-Link.com,2013-01-02 11:54:00,
2013-01-02 07:10:00,5.7,2.2,29.93,West,270,2.7,-999.0,85,-99.99,,,0.00,Acu-Link.com,2013-01-02 12:10:00,
2013-01-02 07:25:00,5.7,2.2,29.94,West,270,2.2,-999.0,85,-99.99,,,0.00,Acu-Link.com,2013-01-02 12:25:00,
2013-01-02 07:40:00,5.2,1.9,29.93,South,180,0.0,-999.0,86,-99.99,,,0.00,Acu-Link.com,2013-01-02 12:40:00,
2013-01-02 07:56:00,5.2,2.2,29.94,West,270,3.2,-999.0,87,-99.99,,,0.00,Acu-Link.com,2013-01-02 12:56:00,
2013-01-02 08:11:00,5.7,2.4,29.95,WSW,247,3.2,-999.0,86,-99.99,,,0.00,Acu-Link.com,2013-01-02 13:11:00,
2013-01-02 08:26:00,6.4,2.9,29.95,WSW,247,4.2,-999.0,85,-99.99,,,0.00,Acu-Link.com,2013-01-02 13:26:00,
2013-01-02 08:41:00,7.3,3.2,29.96,West,270,3.2,-999.0,83,-99.99,,,0.00,Acu-Link.com,2013-01-02 13:41:00,
2013-01-02 08:57:00,8.4,3.5,29.96,West,270,2.7,-999.0,80,-99.99,,,0.00,Acu-Link.com,2013-01-02 13:57:00,
2013-01-02 09:12:00,9.3,4.4,29.97,WSW,247,4.7,-999.0,80,-99.99,,,0.00,Acu-Link.com,2013-01-02 14:12:00,
2013-01-02 09:27:00,10.6,5.4,29.98,West,270,2.7,-999.0,79,-99.99,,,0.00,Acu-Link.com,2013-01-02 14:27:00,
2013-01-02 09:43:00,11.7,5.9,29.98,WNW,292,3.2,-999.0,77,-99.99,,,0.00,Acu-Link.com,2013-01-02 14:43:00,
2013-01-02 09:58:00,12.6,6.5,29.99,WNW,292,4.2,-999.0,76,-99.99,,,0.00,Acu-Link.com,2013-01-02 14:58:00,
2013-01-02 10:13:00,13.5,6.8,29.99,SW,225,3.7,-999.0,74,-99.99,,,0.00,Acu-Link.com,2013-01-02 15:13:00,
2013-01-02 10:28:00,14.0,6.4,30.00,NW,315,3.7,-999.0,71,-99.99,,,0.00,Acu-Link.com,2013-01-02 15:28:00,
2013-01-02 10:44:00,14.9,6.3,30.00,West,270,3.7,-999.0,68,-99.99,,,0.00,Acu-Link.com,2013-01-02 15:44:00,
2013-01-02 10:59:00,15.1,6.8,30.00,NW,315,2.7,-999.0,69,-99.99,,,0.00,Acu-Link.com,2013-01-02 15:59:00,
2013-01-02 11:14:00,15.3,7.0,30.00,NNW,337,3.2,-999.0,69,-99.99,,,0.00,Acu-Link.com,2013-01-02 16:14:00,
2013-01-02 11:30:00,16.7,7.3,29.99,NNW,337,3.2,-999.0,66,-99.99,,,0.00,Acu-Link.com,2013-01-02 16:30:00,
2013-01-02 11:45:00,17.2,6.8,29.98,NNW,337,2.7,-999.0,63,-99.99,,,0.00,Acu-Link.com,2013-01-02 16:45:00,
2013-01-02 12:00:00,18.1,7.3,29.98,North,0,3.2,-999.0,62,-99.99,,,0.00,Acu-Link.com,2013-01-02 17:00:00,
2013-01-02 12:15:00,19.0,5.9,29.98,WNW,292,4.7,-999.0,56,-99.99,,,0.00,Acu-Link.com,2013-01-02 17:15:00,
2013-01-02 12:31:00,19.9,6.0,29.97,NW,315,4.7,-999.0,54,-99.99,,,0.00,Acu-Link.com,2013-01-02 17:31:00,
2013-01-02 12:46:00,21.4,5.2,29.97,NW,315,4.2,-999.0,49,-99.99,,,0.00,Acu-Link.com,2013-01-02 17:46:00,
2013-01-02 13:01:00,20.5,5.7,29.96,NNW,337,4.7,-999.0,52,-99.99,,,0.00,Acu-Link.com,2013-01-02 18:01:00,
2013-01-02 13:17:00,20.5,4.0,29.95,NW,315,4.7,-999.0,48,-99.99,,,0.00,Acu-Link.com,2013-01-02 18:17:00,
2013-01-02 13:32:00,21.0,4.0,29.94,WSW,247,4.2,-999.0,47,-99.99,,,0.00,Acu-Link.com,2013-01-02 18:32:00,
2013-01-02 13:47:00,20.7,2.8,29.93,SSW,202,3.7,-999.0,45,-99.99,,,0.00,Acu-Link.com,2013-01-02 18:47:00,
2013-01-02 14:03:00,21.0,4.4,29.93,West,270,2.7,-999.0,48,-99.99,,,0.00,Acu-Link.com,2013-01-02 19:03:00,
2013-01-02 14:18:00,20.1,4.9,29.94,NNW,337,2.7,-999.0,51,-99.99,,,0.00,Acu-Link.com,2013-01-02 19:18:00,
2013-01-02 14:33:00,20.7,4.6,29.93,SW,225,2.7,-999.0,49,-99.99,,,0.00,Acu-Link.com,2013-01-02 19:33:00,
2013-01-02 14:48:00,21.6,5.4,29.93,West,270,1.7,-999.0,49,-99.99,,,0.00,Acu-Link.com,2013-01-02 19:48:00,
2013-01-02 15:04:00,21.4,4.3,29.93,SW,225,2.7,-999.0,47,-99.99,,,0.00,Acu-Link.com,2013-01-02 20:04:00,
2013-01-02 15:19:00,22.1,4.5,29.92,SSW,202,2.7,-999.0,46,-99.99,,,0.00,Acu-Link.com,2013-01-02 20:19:00,
2013-01-02 15:34:00,22.6,5.0,29.92,South,180,0.0,-999.0,46,-99.99,,,0.00,Acu-Link.com,2013-01-02 20:34:00,
2013-01-02 15:50:00,22.1,4.5,29.93,SW,225,2.2,-999.0,46,-99.99,,,0.00,Acu-Link.com,2013-01-02 20:50:00,
2013-01-02 16:05:00,21.7,5.1,29.93,SSE,157,1.7,-999.0,48,-99.99,,,0.00,Acu-Link.com,2013-01-02 21:05:00,
2013-01-02 16:20:00,21.6,5.4,29.94,SSW,202,2.7,-999.0,49,-99.99,,,0.00,Acu-Link.com,2013-01-02 21:20:00,
2013-01-02 16:35:00,22.3,5.6,29.94,NW,315,2.7,-999.0,48,-99.99,,,0.00,Acu-Link.com,2013-01-02 21:35:00,
2013-01-02 16:51:00,20.7,5.0,29.94,NW,315,2.2,-999.0,50,-99.99,,,0.00,Acu-Link.com,2013-01-02 21:51:00,
2013-01-02 17:06:00,19.9,5.1,29.95,NNW,337,0.0,-999.0,52,-99.99,,,0.00,Acu-Link.com,2013-01-02 22:06:00,
2013-01-02 17:21:00,19.4,5.9,29.94,West,270,0.0,-999.0,55,-99.99,,,0.00,Acu-Link.com,2013-01-02 22:21:00,
2013-01-02 17:36:00,18.0,4.6,29.94,West,270,1.1,-999.0,55,-99.99,,,0.00,Acu-Link.com,2013-01-02 22:36:00,
2013-01-02 17:52:00,17.2,4.6,29.96,NW,315,1.7,-999.0,57,-99.99,,,0.00,Acu-Link.com,2013-01-02 22:52:00,
2013-01-02 18:07:00,16.5,4.7,29.96,ENE,67,0.0,-999.0,59,-99.99,,,0.00,Acu-Link.com,2013-01-02 23:07:00,
2013-01-02 18:22:00,16.0,4.6,29.96,NE,45,0.0,-999.0,60,-99.99,,,0.00,Acu-Link.com,2013-01-02 23:22:00,
2013-01-02 18:38:00,15.3,4.6,29.96,ESE,112,0.0,-999.0,62,-99.99,,,0.00,Acu-Link.com,2013-01-02 23:38:00,
2013-01-02 18:53:00,15.1,5.5,29.97,East,90,0.0,-999.0,65,-99.99,,,0.00,Acu-Link.com,2013-01-02 23:53:00,
2013-01-02 19:08:00,14.9,4.6,29.96,ESE,112,0.0,-999.0,63,-99.99,,,0.00,Acu-Link.com,2013-01-03 00:08:00,
2013-01-02 19:24:00,14.9,4.6,29.95,ESE,112,2.2,-999.0,63,-99.99,,,0.00,Acu-Link.com,2013-01-03 00:24:00,
2013-01-02 19:39:00,15.1,4.8,29.95,SE,135,2.7,-999.0,63,-99.99,,,0.00,Acu-Link.com,2013-01-03 00:39:00,
2013-01-02 19:54:00,14.7,5.4,29.96,SE,135,2.2,-999.0,66,-99.99,,,0.00,Acu-Link.com,2013-01-03 00:54:00,
2013-01-02 20:09:00,14.5,5.9,29.96,SSE,157,1.7,-999.0,68,-99.99,,,0.00,Acu-Link.com,2013-01-03 01:09:00,
2013-01-02 20:25:00,14.7,6.7,29.95,South,180,1.7,-999.0,70,-99.99,,,0.00,Acu-Link.com,2013-01-03 01:25:00,
2013-01-02 20:40:00,14.4,7.4,29.95,SSW,202,1.7,-999.0,73,-99.99,,,0.00,Acu-Link.com,2013-01-03 01:40:00,
2013-01-02 20:55:00,14.0,7.0,29.97,South,180,2.7,-999.0,73,-99.99,,,0.00,Acu-Link.com,2013-01-03 01:55:00,
2013-01-02 21:11:00,14.2,7.5,29.96,South,180,1.7,-999.0,74,-99.99,,,0.00,Acu-Link.com,2013-01-03 02:11:00,
2013-01-02 21:26:00,13.8,7.4,29.96,SSE,157,3.2,-999.0,75,-99.99,,,0.00,Acu-Link.com,2013-01-03 02:26:00,
2013-01-02 21:41:00,14.4,7.7,29.95,SSE,157,3.2,-999.0,74,-99.99,,,0.00,Acu-Link.com,2013-01-03 02:41:00,
2013-01-02 21:57:00,14.7,7.9,29.96,South,180,3.2,-999.0,74,-99.99,,,0.00,Acu-Link.com,2013-01-03 02:57:00,
2013-01-02 22:12:00,14.9,8.1,29.96,South,180,4.2,-999.0,74,-99.99,,,0.00,Acu-Link.com,2013-01-03 03:12:00,
2013-01-02 22:27:00,14.7,7.9,29.96,South,180,3.7,-999.0,74,-99.99,,,0.00,Acu-Link.com,2013-01-03 03:27:00,
2013-01-02 22:58:00,14.4,8.0,29.94,South,180,2.7,-999.0,75,-99.99,,,0.00,Acu-Link.com,2013-01-03 03:58:00,
2013-01-02 23:13:00,14.4,8.2,29.94,South,180,2.2,-999.0,76,-99.99,,,0.00,Acu-Link.com,2013-01-03 04:13:00,
2013-01-02 23:28:00,14.2,8.3,29.95,South,180,3.2,-999.0,77,-99.99,,,0.00,Acu-Link.com,2013-01-03 04:28:00,
2013-01-02 23:44:00,14.0,8.1,29.94,SSW,202,3.2,-999.0,77,-99.99,,,0.00,Acu-Link.com,2013-01-03 04:44:00,
2013-01-02 23:59:00,14.4,8.5,29.95,South,180,3.7,-999.0,77,-99.99,,,0.00,Acu-Link.com,2013-01-03 04:59:00,